User: anonymous   Login
Location: Quebec
(46.8000°N, 71.2500°W)
Time: 06:48:52
(UTC-04:00)
Language:

CZ-4B R/B - Orbit

View from above orbital plane
View from above orbital plane
View from above satellite
View from above satellite

Ground track
Ground track

The orbit data is extracted from the following two-line orbital elements,

1 29093U 06015B   18174.86627249 +.00003048 +00000-0 +68260-4 0  9991
2 29093 097.5291 301.1799 0061241 060.0642 300.6667 15.42317714674673
Epoch (UTC): 23 June 2018 20:47:25
Eccentricity: 0.0061241
inclination: 97.5291°
perigee height: 397 km
apogee height: 481 km
right ascension of ascending node: 301.1799°
argument of perigee: 60.0642°
revolutions per day: 15.42317714
mean anomaly at epoch: 300.6667°
orbit number at epoch: 67467

The dashed part of the orbit path shows where the satellite is in the earth's shadow,  

DLR